• Em Portugal
  • Lista de países
  • Para 7 dias
  • Temperatura da água
  • Mapas de satélite
  • Mapa do tempo
  • Widgets de tempo
  • user-avatar
    Iniciar Sessão

    Previsão horária em Batina

    Hoje, 17 Dezembro, Domingo

    Tempo Temperatura Precipitação Vento Pressão Humidade
    00:00 +2°C° 0 mm 2 m/s 670 mmHg 86%
    01:00 +2°C° 0 mm 2 m/s 670 mmHg 86%
    02:00 +2°C° 0 mm 2 m/s 670 mmHg 86%
    03:00 +2°C° 0 mm 2 m/s 670 mmHg 87%
    04:00 +1°C° 0 mm 2 m/s 671 mmHg 86%
    05:00 +1°C° 0 mm 2 m/s 671 mmHg 86%
    06:00 +1°C° 0 mm 2 m/s 671 mmHg 85%
    07:00 +2°C° 0 mm 2 m/s 672 mmHg 79%
    08:00 +3°C° 0 mm 2 m/s 672 mmHg 72%
    09:00 +4°C° 0 mm 2 m/s 673 mmHg 66%
    10:00 +5°C° 0 mm 2 m/s 673 mmHg 62%
    11:00 +5°C° 0 mm 3 m/s 674 mmHg 58%
    12:00 +7°C° 0 mm 3 m/s 674 mmHg 54%
    13:00 +5°C° 0,1 mm 3 m/s 674 mmHg 56%
    14:00 +5°C° 0,1 mm 4 m/s 674 mmHg 59%
    15:00 +5°C° 0,1 mm 4 m/s 674 mmHg 62%
    16:00 +4°C° 0,1 mm 4 m/s 674 mmHg 66%
    17:00 +3°C° 0,1 mm 4 m/s 674 mmHg 70%
    18:00 +1°C° 0,1 mm 4 m/s 674 mmHg 74%
    19:00 +1°C° 0 mm 4 m/s 675 mmHg 76%
    20:00 +1°C° 0 mm 3 m/s 675 mmHg 78%
    21:00 +1°C° 0 mm 3 m/s 675 mmHg 79%
    22:00 +1°C° 0 mm 3 m/s 675 mmHg 80%
    23:00 0°C° 0 mm 3 m/s 675 mmHg 81%

    Amanhã, 18 Dezembro, Segunda-feira

    Tempo Temperatura Precipitação Vento Pressão Humidade
    00:00 0°C° 0 mm 3 m/s 675 mmHg 81%
    01:00 0°C° 0 mm 3 m/s 675 mmHg 81%
    02:00 +1°C° 0 mm 3 m/s 675 mmHg 81%
    03:00 +1°C° 0 mm 3 m/s 676 mmHg 81%
    04:00 +1°C° 0 mm 3 m/s 676 mmHg 82%
    05:00 +1°C° 0 mm 3 m/s 676 mmHg 83%
    06:00 +1°C° 0 mm 3 m/s 676 mmHg 84%
    07:00 +1°C° 0 mm 3 m/s 676 mmHg 81%
    08:00 +2°C° 0 mm 3 m/s 676 mmHg 77%
    09:00 +3°C° 0 mm 3 m/s 677 mmHg 74%
    10:00 +3°C° 0 mm 3 m/s 677 mmHg 71%
    11:00 +4°C° 0 mm 4 m/s 677 mmHg 69%
    12:00 +4°C° 0 mm 4 m/s 676 mmHg 66%
    13:00 +4°C° 0 mm 3 m/s 676 mmHg 66%
    14:00 +4°C° 0 mm 3 m/s 676 mmHg 66%
    15:00 +4°C° 0 mm 3 m/s 675 mmHg 65%
    16:00 +4°C° 0 mm 3 m/s 675 mmHg 67%
    17:00 +4°C° 0 mm 2 m/s 675 mmHg 70%
    18:00 +4°C° 0 mm 2 m/s 675 mmHg 72%
    19:00 +3°C° 0 mm 2 m/s 675 mmHg 74%
    20:00 +3°C° 0 mm 2 m/s 674 mmHg 76%
    21:00 +2°C° 0 mm 2 m/s 674 mmHg 77%
    22:00 +2°C° 0 mm 2 m/s 674 mmHg 77%
    23:00 +2°C° 0 mm 2 m/s 674 mmHg 77%

    Depois de amanhã, 19 Dezembro, Terça-feira

    Tempo Temperatura Precipitação Vento Pressão Humidade
    00:00 +1°C° 0 mm 2 m/s 673 mmHg 77%
    01:00 +1°C° 0 mm 2 m/s 673 mmHg 77%
    02:00 +1°C° 0 mm 2 m/s 673 mmHg 77%
    03:00 +1°C° 0 mm 2 m/s 672 mmHg 76%
    04:00 +2°C° 0 mm 1 m/s 672 mmHg 76%
    05:00 +2°C° 0 mm 1 m/s 672 mmHg 75%
    06:00 +2°C° 0 mm 1 m/s 672 mmHg 74%
    07:00 +3°C° 0,2 mm 1 m/s 673 mmHg 70%
    08:00 +4°C° 0,2 mm 1 m/s 673 mmHg 67%
    09:00 +5°C° 0,2 mm 1 m/s 673 mmHg 63%
    10:00 +5°C° 0,2 mm 2 m/s 673 mmHg 61%
    11:00 +5°C° 0,2 mm 2 m/s 673 mmHg 59%
    12:00 +5°C° 0,2 mm 3 m/s 673 mmHg 57%
    13:00 +5°C° 0 mm 3 m/s 672 mmHg 57%
    14:00 +5°C° 0 mm 4 m/s 672 mmHg 57%
    15:00 +5°C° 0 mm 4 m/s 672 mmHg 57%
    16:00 +4°C° 0,1 mm 3 m/s 672 mmHg 62%
    17:00 +5°C° 0,1 mm 2 m/s 672 mmHg 67%
    18:00 +4°C° 0,1 mm 2 m/s 672 mmHg 72%
    19:00 +4°C° 0 mm 2 m/s 672 mmHg 74%
    20:00 +3°C° 0 mm 2 m/s 672 mmHg 77%
    21:00 +3°C° 0 mm 2 m/s 673 mmHg 79%
    22:00 +2°C° 0 mm 3 m/s 673 mmHg 82%
    23:00 +2°C° 0 mm 3 m/s 673 mmHg 84%

    20 Dezembro, Quarta-feira

    Tempo Temperatura Precipitação Vento Pressão Humidade
    00:00 +2°C° 0 mm 3 m/s 673 mmHg 86%
    01:00 +1°C° 0,1 mm 4 m/s 673 mmHg 87%
    02:00 +1°C° 0,1 mm 4 m/s 673 mmHg 88%
    03:00 +1°C° 0,1 mm 4 m/s 673 mmHg 89%
    04:00 +1°C° 0,2 mm 4 m/s 673 mmHg 89%
    05:00 +1°C° 0,2 mm 4 m/s 674 mmHg 89%
    06:00 +1°C° 0,2 mm 4 m/s 674 mmHg 89%
    07:00 +1°C° 0 mm 5 m/s 674 mmHg 85%
    08:00 +2°C° 0 mm 5 m/s 675 mmHg 81%
    09:00 +2°C° 0 mm 5 m/s 675 mmHg 76%
    10:00 +3°C° 0 mm 6 m/s 675 mmHg 72%
    11:00 +4°C° 0 mm 6 m/s 675 mmHg 67%
    12:00 +4°C° 0 mm 6 m/s 676 mmHg 63%
    13:00 +5°C° 0 mm 5 m/s 675 mmHg 62%
    14:00 +5°C° 0 mm 5 m/s 675 mmHg 62%
    15:00 +5°C° 0 mm 5 m/s 675 mmHg 61%
    16:00 +4°C° 0 mm 4 m/s 675 mmHg 66%
    17:00 +3°C° 0 mm 4 m/s 675 mmHg 71%
    18:00 +2°C° 0 mm 3 m/s 675 mmHg 76%
    19:00 +2°C° 0 mm 3 m/s 676 mmHg 77%
    20:00 +3°C° 0 mm 2 m/s 676 mmHg 79%
    21:00 +2°C° 0 mm 2 m/s 676 mmHg 80%
    22:00 +2°C° 0 mm 2 m/s 676 mmHg 81%
    23:00 +2°C° 0 mm 2 m/s 676 mmHg 82%

    21 Dezembro, Quinta-feira

    Tempo Temperatura Precipitação Vento Pressão Humidade
    00:00 +3°C° 0 mm 2 m/s 676 mmHg 84%
    01:00 +3°C° 0,1 mm 2 m/s 676 mmHg 84%
    02:00 +3°C° 0,1 mm 2 m/s 676 mmHg 85%
    03:00 +4°C° 0,1 mm 1 m/s 676 mmHg 86%
    04:00 +3°C° 0,3 mm 2 m/s 676 mmHg 86%
    05:00 +3°C° 0,3 mm 2 m/s 676 mmHg 86%
    06:00 +3°C° 0,3 mm 2 m/s 677 mmHg 87%
    07:00 +2°C° 0,1 mm 3 m/s 677 mmHg 83%
    08:00 +3°C° 0,1 mm 3 m/s 678 mmHg 80%
    09:00 +3°C° 0,1 mm 4 m/s 678 mmHg 76%
    10:00 +3°C° 0,1 mm 5 m/s 678 mmHg 72%
    11:00 +3°C° 0,1 mm 5 m/s 678 mmHg 68%
    12:00 +4°C° 0,1 mm 6 m/s 678 mmHg 63%
    13:00 +3°C° 0 mm 6 m/s 678 mmHg 63%
    14:00 +3°C° 0 mm 6 m/s 678 mmHg 63%
    15:00 +3°C° 0 mm 6 m/s 678 mmHg 63%
    16:00 +3°C° 0 mm 5 m/s 679 mmHg 69%
    17:00 +3°C° 0 mm 4 m/s 679 mmHg 74%
    18:00 +2°C° 0 mm 3 m/s 679 mmHg 80%
    19:00 +1°C° 0 mm 3 m/s 679 mmHg 82%
    20:00 +1°C° 0 mm 3 m/s 679 mmHg 84%
    21:00 +1°C° 0 mm 3 m/s 679 mmHg 87%
    22:00 0°C° 0 mm 3 m/s 679 mmHg 87%
    23:00 0°C° 0 mm 3 m/s 679 mmHg 88%

    22 Dezembro, Sexta-feira

    Tempo Temperatura Precipitação Vento Pressão Humidade
    00:00 0°C° 0 mm 3 m/s 679 mmHg 89%
    01:00 0°C° 0 mm 3 m/s 679 mmHg 89%
    02:00 -1°C° 0 mm 3 m/s 678 mmHg 89%
    03:00 -1°C° 0 mm 3 m/s 678 mmHg 89%
    04:00 -1°C° 0 mm 3 m/s 678 mmHg 88%
    05:00 -1°C° 0 mm 2 m/s 678 mmHg 88%
    06:00 -1°C° 0 mm 2 m/s 678 mmHg 88%
    07:00 +1°C° 0 mm 2 m/s 678 mmHg 81%
    08:00 +2°C° 0 mm 2 m/s 679 mmHg 74%
    09:00 +3°C° 0 mm 2 m/s 679 mmHg 68%
    10:00 +4°C° 0 mm 2 m/s 679 mmHg 62%
    11:00 +5°C° 0 mm 2 m/s 679 mmHg 57%
    12:00 +6°C° 0 mm 2 m/s 678 mmHg 52%
    13:00 +6°C° 0 mm 2 m/s 678 mmHg 52%
    14:00 +7°C° 0 mm 3 m/s 678 mmHg 52%
    15:00 +7°C° 0 mm 3 m/s 677 mmHg 52%
    16:00 +5°C° 0 mm 3 m/s 677 mmHg 59%
    17:00 +5°C° 0 mm 2 m/s 677 mmHg 66%
    18:00 +3°C° 0 mm 2 m/s 677 mmHg 73%
    19:00 +3°C° 0 mm 2 m/s 677 mmHg 75%
    20:00 +3°C° 0 mm 2 m/s 677 mmHg 77%
    21:00 +3°C° 0 mm 2 m/s 677 mmHg 80%
    22:00 +2°C° 0 mm 2 m/s 676 mmHg 81%
    23:00 +2°C° 0 mm 2 m/s 676 mmHg 82%
    Mostrar mais